Weather History for KLCK - July, 2013

Change the Weather History Date:

Thursday, July 11, 2013

  Actual Average (KCMH) Record (KCMH)
Temperature  
Mean Temperature 72 °F 75 °F  
Max Temperature 79 °F 85 °F 104 °F (1936)
Min Temperature 64 °F 66 °F 50 °F (1963)
Degree Days  
Heating Degree Days 0 0  
Month to date heating degree days 0  
Since 1 June heating degree days 19  
Since 1 July heating degree days 0  
Cooling Degree Days 6 10  
Month to date cooling degree days 110  
Year to date cooling degree days 408  
Since 1 June cooling degree days 326  
Growing Degree Days 22 (Base 50)    
Moisture  
Dew Point 59 °F    
Average Humidity 68    
Maximum Humidity 88    
Minimum Humidity 42    
Precipitation  
Precipitation 0.00 in 0.16 in 3.76 in (1897)
Month to date precipitation 1.68  
Year to date precipitation 21.26  
Snow  
Snow 0.00 in 0.00 in 0.00 in ()
Month to date snowfall 0.0  
Since 1 June snowfall 0.0  
Since 1 July snowfall 0.0  
Snow Depth -    
Sea Level Pressure  
Sea Level Pressure 29.99 in    
Wind  
Wind Speed 5 mph (NE)    
Max Wind Speed 16 mph    
Max Gust Speed 20 mph    
Visibility 10 miles    
Events      
T = Trace of Precipitation, MM = Missing Value Source: NWS Daily Summary

Daily Weather History Graph

Daily Weather History Graph

Search for Another Location

Airport or City:

Trip Planner

Search our weather history database for the weather conditions in past years. The results will help you decide how hot, cold, wet, or windy it might be!

Date:

Astronomy

Jul. 11, 2013 Rise Set
Actual Time 6:13 AM EDT 9:00 PM EDT
Civil Twilight 5:41 AM EDT 9:32 PM EDT
Nautical Twilight 5:01 AM EDT 10:12 PM EDT
Astronomical Twilight 4:15 AM EDT 10:58 PM EDT
Moon 9:30 AM EDT (7/11) 10:41 PM EDT (7/11)
Length of Visible Light 15h 51m
Length of Day
14h 47m
Waxing Crescent, 10% of the Moon is Illuminated
Jul 11
Waxing Crescent
Jul 15
First Quarter
Jul 22
Full
Jul 29
Last Quarter
Aug 6
New

Hourly Weather History & Observations

Time (EDT) Temp. Dew Point Humidity Pressure Visibility Wind Dir Wind Speed Gust Speed Precip Events Conditions
12:15 AM 65.1 °F 61.3 °F 88% 29.96 in 10.0 mi SSW 5.8 mph - N/A   Clear
12:35 AM 64.9 °F 61.2 °F 88% 29.96 in 10.0 mi SSW 5.8 mph - N/A   Clear
12:55 AM 64.8 °F 61.0 °F 88% 29.96 in 10.0 mi SSW 5.8 mph - N/A   Clear
1:15 AM 64.6 °F 60.8 °F 88% 29.95 in 10.0 mi South 5.8 mph - N/A   Mostly Cloudy
1:35 AM 64.6 °F 60.8 °F 88% 29.95 in 10.0 mi SSW 3.5 mph - N/A   Overcast
1:55 AM 64.9 °F 61.0 °F 87% 29.95 in 10.0 mi SSW 4.6 mph - N/A   Overcast
2:15 AM 64.9 °F 61.0 °F 87% 29.96 in 10.0 mi Calm Calm - N/A   Overcast
2:35 AM 64.9 °F 60.8 °F 86% 29.95 in 10.0 mi Calm Calm - N/A   Mostly Cloudy
2:55 AM 64.9 °F 60.8 °F 86% 29.96 in 10.0 mi Calm Calm - N/A   Overcast
3:15 AM 65.3 °F 60.8 °F 85% 29.95 in 10.0 mi Calm Calm - N/A   Overcast
3:35 AM 65.3 °F 60.6 °F 85% 29.95 in 10.0 mi Calm Calm - N/A   Overcast
3:55 AM 65.5 °F 60.6 °F 84% 29.95 in 10.0 mi Calm Calm - N/A   Overcast
4:15 AM 65.7 °F 60.8 °F 84% 29.95 in 10.0 mi Calm Calm - N/A   Overcast
4:35 AM 66.0 °F 61.0 °F 84% 29.95 in 10.0 mi Calm Calm - N/A   Overcast
4:55 AM 66.2 °F 61.0 °F 83% 29.95 in 10.0 mi North 3.5 mph - N/A   Overcast
5:15 AM 66.2 °F 61.2 °F 84% 29.95 in 10.0 mi NNW 3.5 mph - N/A   Overcast
5:35 AM 66.4 °F 61.2 °F 83% 29.95 in 10.0 mi Calm Calm - N/A   Overcast
5:55 AM 66.6 °F 61.3 °F 83% 29.96 in 10.0 mi SSE 3.5 mph - N/A   Overcast
6:15 AM 65.5 °F 61.2 °F 86% 29.97 in 3.0 mi South 3.5 mph - N/A   Mostly Cloudy
6:35 AM 64.4 °F 60.8 °F 88% 29.97 in 2.5 mi South 3.5 mph - N/A   Scattered Clouds
6:55 AM 64.6 °F 61.0 °F 88% 29.98 in 3.0 mi Calm Calm - N/A   Scattered Clouds
7:15 AM 65.1 °F 61.5 °F 88% 29.98 in 4.0 mi Calm Calm - N/A   Scattered Clouds
7:35 AM 65.5 °F 61.9 °F 88% 29.98 in 5.0 mi Calm Calm - N/A   Mostly Cloudy
7:55 AM 66.2 °F 62.1 °F 86% 29.98 in 7.0 mi Calm Calm - N/A   Overcast
8:15 AM 66.6 °F 62.2 °F 86% 29.98 in 10.0 mi Calm Calm - N/A   Overcast
8:35 AM 67.8 °F 62.2 °F 82% 29.98 in 10.0 mi Calm Calm - N/A   Overcast
8:55 AM 68.7 °F 62.4 °F 80% 29.99 in 10.0 mi Calm Calm - N/A   Overcast
9:15 AM 69.8 °F 62.6 °F 78% 29.99 in 10.0 mi NNE 5.8 mph - N/A   Overcast
9:35 AM 70.5 °F 63.1 °F 77% 29.99 in 10.0 mi ENE 3.5 mph - N/A   Overcast
9:55 AM 71.6 °F 63.5 °F 76% 29.99 in 10.0 mi NE 5.8 mph - N/A   Overcast
10:15 AM 72.9 °F 63.7 °F 73% 30.00 in 10.0 mi ENE 9.2 mph - N/A   Overcast
10:35 AM 72.9 °F 63.1 °F 71% 30.00 in 10.0 mi ENE 6.9 mph - N/A   Overcast
10:55 AM 73.4 °F 63.3 °F 71% 30.00 in 10.0 mi ENE 10.4 mph - N/A   Overcast
11:15 AM 74.1 °F 63.7 °F 70% 30.00 in 10.0 mi NE 8.1 mph - N/A   Overcast
11:35 AM 74.3 °F 63.3 °F 68% 30.00 in 10.0 mi ENE 5.8 mph - N/A   Overcast
11:55 AM 74.3 °F 63.5 °F 69% 30.01 in 10.0 mi ENE 5.8 mph - N/A   Overcast
12:15 PM 73.9 °F 63.0 °F 68% 30.01 in 10.0 mi ENE 9.2 mph - N/A   Overcast
12:35 PM 74.1 °F 61.7 °F 65% 30.01 in 10.0 mi NE 10.4 mph - N/A   Overcast
12:55 PM 74.3 °F 61.2 °F 63% 30.01 in 10.0 mi NE 9.2 mph - N/A   Overcast
1:15 PM 76.3 °F 61.2 °F 59% 30.00 in 10.0 mi ENE 9.2 mph - N/A   Scattered Clouds
1:35 PM 77.4 °F 61.3 °F 58% 30.00 in 10.0 mi NE 8.1 mph - N/A   Mostly Cloudy
1:55 PM 76.6 °F 60.1 °F 56% 30.00 in 10.0 mi NNE 12.7 mph - N/A   Overcast
2:15 PM 76.5 °F 60.3 °F 57% 30.00 in 10.0 mi NE 6.9 mph - N/A   Overcast
2:35 PM 77.2 °F 60.4 °F 56% 30.00 in 10.0 mi NE 9.2 mph - N/A   Overcast
2:55 PM 77.5 °F 59.7 °F 54% 30.00 in 10.0 mi NNE 10.4 mph - N/A   Overcast
3:15 PM 76.8 °F 59.0 °F 54% 30.00 in 10.0 mi NE 10.4 mph - N/A   Overcast
3:35 PM 78.3 °F 58.8 °F 51% 29.99 in 10.0 mi ENE 10.4 mph - N/A   Overcast
3:55 PM 78.8 °F 59.0 °F 51% 29.99 in 10.0 mi ENE 8.1 mph - N/A   Mostly Cloudy
4:15 PM 78.4 °F 59.5 °F 52% 29.99 in 10.0 mi ENE 6.9 mph - N/A   Overcast
4:35 PM 78.3 °F 59.7 °F 53% 29.98 in 10.0 mi ENE 11.5 mph 17.3 mph N/A   Overcast
4:55 PM 79.0 °F 57.7 °F 48% 29.98 in 10.0 mi North 11.5 mph 19.6 mph N/A   Mostly Cloudy
5:15 PM 77.9 °F 56.7 °F 48% 29.98 in 10.0 mi North 10.4 mph - N/A   Overcast
5:35 PM 77.2 °F 56.3 °F 48% 29.98 in 10.0 mi North 16.1 mph - N/A   Overcast
5:55 PM 76.5 °F 55.9 °F 49% 29.99 in 10.0 mi North 12.7 mph - N/A   Overcast
6:15 PM 76.3 °F 55.9 °F 49% 29.99 in 10.0 mi NNE 12.7 mph - N/A   Overcast
6:35 PM 76.5 °F 55.4 °F 48% 29.99 in 10.0 mi North 13.8 mph - N/A   Overcast
6:55 PM 76.5 °F 54.1 °F 46% 30.00 in 10.0 mi North 13.8 mph - N/A   Mostly Cloudy
7:15 PM 76.3 °F 52.3 °F 43% 30.00 in 10.0 mi North 16.1 mph - N/A   Mostly Cloudy
7:35 PM 76.1 °F 51.4 °F 42% 30.00 in 10.0 mi North 11.5 mph - N/A   Scattered Clouds
7:55 PM 75.0 °F 52.2 °F 45% 30.00 in 10.0 mi NNE 9.2 mph - N/A   Scattered Clouds
8:15 PM 74.3 °F 52.0 °F 46% 30.01 in 10.0 mi NNE 13.8 mph - N/A   Scattered Clouds
8:35 PM 73.0 °F 50.5 °F 45% 30.01 in 10.0 mi NNE 9.2 mph - N/A   Clear
8:55 PM 71.6 °F 50.5 °F 47% 30.01 in 10.0 mi NNE 11.5 mph - N/A   Clear
9:15 PM 70.5 °F 50.2 °F 48% 30.01 in 10.0 mi NNE 10.4 mph - N/A   Clear
9:35 PM 70.0 °F 50.4 °F 50% 30.01 in 10.0 mi NNE 9.2 mph - N/A   Clear
9:55 PM 68.9 °F 51.3 °F 53% 30.01 in 10.0 mi North 6.9 mph - N/A   Clear
10:15 PM 68.0 °F 52.0 °F 56% 30.02 in 10.0 mi North 6.9 mph - N/A   Clear
10:35 PM 67.3 °F 52.3 °F 59% 30.02 in 10.0 mi NNE 6.9 mph - N/A   Clear
10:55 PM 66.9 °F 52.5 °F 60% 30.03 in 10.0 mi NNE 5.8 mph - N/A   Clear
11:15 PM 65.5 °F 52.9 °F 64% 30.03 in 10.0 mi NE 4.6 mph - N/A   Clear
11:35 PM 64.4 °F 53.2 °F 67% 30.03 in 10.0 mi NNE 3.5 mph - N/A   Clear
11:55 PM 64.6 °F 53.2 °F 67% 30.03 in 10.0 mi NNE 5.8 mph - N/A   Clear